Location: Sungai Bunut
(2.6333°N, 113.7333°E)
Time: 06:19:46
(UTC+00:00)

S-56A Canister/Altair - Pass Details

Date: 12 December 2023
Orbit: 639 x 2488 km, 38.9° (Epoch: 04 March)

Event Time Altitude Azimuth Distance (km) Brightness Sun altitude
Rises 12:13:24 0° 265° (W) 4,094 12.3 -27.3°
Reaches altitude 10° 12:17:16 10° 245° (WSW) 3,459 11.8 -28.2°
Maximum altitude 12:22:38 17° 208° (SSW) 3,372 11.3 -29.4°
Drops below altitude 10° 12:29:13 10° 172° (S) 4,373 11.5 -30.9°
Sets 12:35:15 0° 155° (SSE) 5,726 12.0 -32.3°
